Location: Unspecified
(48.7670°N, 0.0000°E)
Time: 09:23:19
(UTC+00:00)

Vanguard 2 Rocket - Pass Details

Date: 26 June 2019
Orbit: 554 x 3326 km, 32.9° (Epoch: 19 July)

Event Time Altitude Azimuth Distance (km) Brightness Sun altitude
Rises 02:19:31 0° 265° (W) 5,343 10.5 -11.7°
Reaches altitude 10° 02:23:42 10° 252° (WSW) 4,765 10.1 -11.3°
Maximum altitude 02:33:41 23° 207° (SSW) 4,566 9.8 -10.4°
Drops below altitude 10° 02:46:27 10° 165° (SSE) 6,175 10.8 -9.1°
Sets 02:53:10 0° 153° (SSE) 7,303 11.3 -8.5°
